STARLINK-5581, 55373

Orbit data source: Space-Track

STARLINK-5581, 55373 is a payload satellite owned by SpaceX/Seattle (US) in LEO that was launched on Thu, 26 Jan 2023 UTC via an FALCON 9 launch vehicle from the Air Force Eastern Test Range (AFETR). Payload-class satellites include a variety of spacecraft equipped with specific instruments for various scientific and technological missions. These include communications satellites like Starlink; space stations such as the ISS; scientific satellites like the Hubble; Earth observation satellites from companies like Planet Labs, Umbra, and HawkEye 360; GPS; miniature CubeSats for education and research; and military/defense satellites.

Loading next visibility...
Identifier
55373, 2023-013AU
Orbit
LEO
Country
Flag of USUS
Related business
Manufacturer
SpaceX/Seattle
Mission
Operational Commercial Communications
Bus & Motor
STARLINK, Unknown motor
Mass
305 kg wet, ~290 kg dry
Launch date (UTC)
2023-01-26 (3 years ago)
Launch vehicle
FALCON 9
Launch site
Air Force Eastern Test Range (AFETR)
Object type
Payload
Rocket body
Debris
Shape & HBR
Box + 1 Pan, 10.1 m
Radar Cross Section
13.562 m², Large (>1 m²)

Expand to show TLE details & history
Last TLE update: 21 hours ago

TLE from 21 hours ago
0 STARLINK-5581
1 55373U 23013AU  25348.90545112  .00001523  00000-0  12781-3 0  9994
2 55373  43.0054  54.1805 0001683 272.6550  87.4099 15.02527330158806
Epoch: 2025-12-14T21:43Z
TLE epoch observation values (Epoch: 2025-12-14T21:43:50.976Z)
Latitude
-0.00008°
Longitude
4.40635°
Altitude
558.832 km
Speed
7.584 km/s
True Right ascension
03h 36m 43s
True Declination
0° 00' 00"
Sunlit
Object was in full shadow at epoch
Visualization orbit readout
Latitude
Unknown
Longitude
Unknown
Altitude
Unknown
Speed
Unknown
Apparent Right ascension
Unknown
Apparent Declination
Unknown
Sunlit
N/A
Visualization observer readout
Local Sidereal Time
17:04:31
Azimuth
Unknown
Elevation
Unknown
Doppler factor
Unknown
Orbital elements
Apogee altitude
562.197 km
Perigee altitude
559.861 km
Semi-major axis
6,939.166 km
Eccentricity
0.00017
Inclination
43.0054°
RAAN
54.1805°
Arg. of periapsis
272.655°
True anomaly
87.42917°
Mean anomaly
87.4099°
Eccentric anomaly
87.41953°
Mean motion
3.75476 °/min
Orbital period
95.88 mins
BSTAR
0.00012781
Loading maneuver chart data...
Computing Atmospheric mass density...
Loading historical data...
Loading historical data...
Loading historical data...
Loading historical data...
Loading historical data...
Loading historical data...
Loading historical data...

Documentation

Showing up to 5 results
|